^^
Saratoga-Weather Station Historical Data
Daily Summary for October 20, 2021 Units:  English    Metric   Both
Daily Weekly Monthly Yearly Custom
  High: Low: Average:
Temperature: 55.9 °F 53.2 °F 54.5 °F
Dew Point: 52 °F 49.5 °F 50.9 °F
Humidity: 90% 79% 88%
Wind Speed: 6mph 0mph 1.5mph
Wind Gust: 6mph - -
Wind- - ESE
Pressure: 30.1 in 30 in -
Precipitation: 0 in    
Historical Graphs
 
 
Tabular Data for October 20, 2021
Time Temperature Dew Point Pressure Wind Wind Speed Wind Gust Humidity Rainfall Rate (Hourly) solar
00:04 54.7 °F 51.8 °F 30.1 in Calm   2 mph 90% 0 in 0 W/m2
00:09 54.7 °F 51.8 °F 30.1 in ESE 2.9 mph 3 mph 90% 0 in 0 W/m2
00:14 54.7 °F 51.8 °F 30.1 in ESE 2.9 mph 4 mph 90% 0 in 0 W/m2
00:19 54.9 °F 52 °F 30.1 in SE 0.9 mph 2 mph 90% 0 in 0 W/m2
00:24 54.9 °F 52 °F 30.1 in ESE 0.9 mph 4 mph 90% 0 in 0 W/m2
00:29 54.9 °F 51.6 °F 30.1 in ESE 2 mph 3 mph 89% 0 in 0 W/m2
00:34 54.9 °F 51.6 °F 30 in East 2 mph 4 mph 89% 0 in 0 W/m2
00:39 55 °F 51.8 °F 30 in East 6 mph 6 mph 89% 0 in 0 W/m2
00:44 55.2 °F 51.8 °F 30 in ESE 0.9 mph 3 mph 88% 0 in 0 W/m2
00:49 55.2 °F 51.8 °F 30 in ESE 2.9 mph 3 mph 88% 0 in 0 W/m2
00:54 55 °F 51.6 °F 30 in East 2 mph 4 mph 88% 0 in 0 W/m2
00:59 55 °F 51.6 °F 30 in ESE 2 mph 2 mph 88% 0 in 0 W/m2
01:04 55 °F 51.6 °F 30 in ESE 2.9 mph 4 mph 88% 0 in 0 W/m2
01:09 55 °F 51.6 °F 30 in East 0.9 mph 3 mph 88% 0 in 0 W/m2
01:14 54.9 °F 51.4 °F 30 in ESE 2 mph 2 mph 88% 0 in 0 W/m2
01:19 54.9 °F 51.4 °F 30 in Calm   1 mph 88% 0 in 0 W/m2
01:24 54.7 °F 51.3 °F 30 in ESE 0.9 mph 3 mph 88% 0 in 0 W/m2
01:29 54.5 °F 51.1 °F 30 in Calm     88% 0 in 0 W/m2
01:34 54.1 °F 50.7 °F 30 in ESE 0.9 mph 4 mph 88% 0 in 0 W/m2
01:39 54.1 °F 50.7 °F 30 in East 0.9 mph 3 mph 88% 0 in 0 W/m2
01:44 54.1 °F 50.7 °F 30 in Calm   3 mph 88% 0 in 0 W/m2
01:49 54 °F 50.7 °F 30 in Calm   2 mph 89% 0 in 0 W/m2
01:54 53.8 °F 50.4 °F 30 in SSE 0.9 mph 4 mph 88% 0 in 0 W/m2
01:59 53.6 °F 50.4 °F 30 in ESE 2.9 mph 3 mph 89% 0 in 0 W/m2
02:04 53.4 °F 50.2 °F 30 in ESE 2 mph 4 mph 89% 0 in 0 W/m2
02:09 53.4 °F 50.2 °F 30 in SE 0.9 mph 3 mph 89% 0 in 0 W/m2
02:14 53.4 °F 50.2 °F 30 in SE 2.9 mph 4 mph 89% 0 in 0 W/m2
02:19 53.2 °F 50 °F 30 in East 2 mph 2 mph 89% 0 in 0 W/m2
02:24 53.2 °F 50 °F 30 in SE 2 mph 2 mph 89% 0 in 0 W/m2
02:29 53.4 °F 50 °F 30 in NW 0.9 mph 4 mph 88% 0 in 0 W/m2
02:34 54.3 °F 49.6 °F 30 in Calm   4 mph 84% 0 in 0 W/m2
02:39 55 °F 50 °F 30 in Calm   3 mph 83% 0 in 0 W/m2
02:44 55.2 °F 49.8 °F 30 in NE 0.9 mph 2 mph 82% 0 in 0 W/m2
02:49 55.8 °F 49.6 °F 30 in ESE 0.9 mph 2 mph 80% 0 in 0 W/m2
02:54 55.9 °F 49.5 °F 30 in East 2 mph 3 mph 79% 0 in 0 W/m2
Juneau County Weather
Compliments of Weather Underground - 2 mb